Weather

Vsebine: Paragliding sitesCurrent conditionsCurrent conditions (amateur)Radar rainfal imageMeteo stationsPanoramic cameras


Current conditions (official report)

Show amateur stations

Click on a specific station to see its location

Location Weather conditions Temperature Wind Air pressure Last updated Geopedia
    °C direction speed (m/s) gusts (m/s) hPa    
Babno Polje 4   - - 2018-09-26 04:43:00
Babno Polje (756 m) 5   - - 2016-01-12 07:40:00
Bilje Nova Gorica 9   2 4 1039 2018-09-26 04:43:00
Bilje pri Novi Gorici 9   4 - 1039 2018-09-26 04:42:00
Blegoš -1   - - 2018-09-26 04:42:00
Bohinjska Češnjica 0   - - 2018-09-26 04:42:00
Boršt Gorenja vas 1   1 1 1041 2018-09-26 04:34:00
Bovec 2   - - 1041 2018-09-26 04:34:00
Breginj 2   - - 2018-09-26 04:42:00
Bukovski vrh 4   - - 2018-09-26 04:43:00
Celje 1   1 - 1041 2018-09-26 04:42:00
Cerkniško jezero 3   - - 2018-09-26 04:43:00
Črnomelj 1   - - 2018-09-26 04:42:00
Davča 2   - - 2018-09-26 04:42:00
Dobliče Črnomelj 1   - 1 1041 2018-09-26 04:33:00
Dolenje Ajdovščina 7   - 2 2018-09-26 04:33:00
Gačnik 1   - 1 2018-09-26 04:42:00
Godnje 7   1 3 2018-09-26 04:42:00
Gornji Grad 0   - - 2018-09-26 04:42:00
Hočko Pohorje 6   - - 2018-09-26 04:42:00
Hrastnik 1   - 1 1041 2018-09-26 04:36:00
Idrija 2   - - 2018-09-26 04:43:00
Ilirska Bistrica 6   2 5 2018-09-26 04:33:00
Iskrba -1   1 1 2018-09-26 04:42:00
Jeronim 2   - - 2018-09-26 04:43:00
Jeruzalem 5   - - 2018-09-26 04:42:00
Jezersko 0   - - 2018-09-26 04:43:00
Juršče   - - 2016-09-13 14:33:00
Kamniška Bistrica 0   - - 2018-09-26 04:42:00
Kanin -2   - - 2018-09-26 04:43:00
Katarina nad Ljubljano 8   - - 2018-09-25 20:42:00
Kočevje 1   1 2 2018-09-26 04:43:00
Koper Kapitanija 12   3 5 1039 2018-09-26 04:37:00
Korensko sedlo -1   - - 2018-09-26 04:43:00
Kraj. park Goričko 4   3 5 2018-09-26 04:33:00
Kranj 2   - - 2018-09-26 04:43:00
Kredarica -5   10 14 2018-09-26 04:43:00
Krn 2   - - 2018-09-26 04:43:00
Krško 2   1 2 1041 2018-09-26 04:37:00
Krvavec -3   2 3 2018-09-26 04:43:00
Kubed 10   - - 2018-09-26 04:43:00
Kum 0   2 8 2018-09-26 04:43:00
Lendava 2   - 2 1041 2018-09-26 04:34:00
Let. E. Rusjana Maribor 3   1 2 1041 2018-09-26 04:34:00
Let. J. Pučnika Lj. 0   2 3 1011 2015-11-26 11:03:00
Let. J. Pučnika Ljubljana 1   1 2 1041 2018-09-26 04:43:00
Letališče Cerklje ob Krki 2   1 - 1041 2018-09-26 04:42:00
Letališče Edvarda Rusjana Maribor 3   1 - 2018-09-26 04:42:00
Letališče Jožeta Pučnika Ljubljana 1   3 - 1041 2018-09-26 04:42:00
Letališče Lesce 1   1 - 1041 2018-09-26 04:42:00
Letališče Portorož 11   4 - 2018-09-26 04:42:00
Lisca 2   6 11 2018-09-26 04:43:00
Lisca (943 m) 9   5 12 2016-03-29 14:02:00
Litija 2   - - 2018-09-26 04:43:00
Ljubljana 4   1 - 2018-09-26 04:42:00
Logarska dolina -2   - - 2018-09-26 04:43:00
Logatec -2   - - 2018-09-26 04:43:00
Luka Koper 10   1 3 2018-09-26 04:33:00
Malkovec 5   - 3 1041 2018-09-26 04:35:00
Maribor 4   2 5 2018-09-26 04:43:00
Maribor - Tabor 4   2 4 2018-09-26 04:33:00
Marinča vas -1   - - 2018-09-26 04:42:00
Metlika 1   - - 2018-09-26 04:43:00
Mežica 1   - - 2018-09-26 04:43:00
Miklavž na Gorjancih 2   - - 2018-09-26 04:43:00
Murska Sobota 3   2 2 1041 2018-09-26 04:43:00
Nanos 0   9 13 2018-09-26 04:43:00
Nova Gorica 8   1 3 2018-09-26 04:36:00
Nova vas - Bloke 2   - - 2018-09-26 04:43:00
Novo mesto 2   1 2 1041 2018-09-26 04:43:00
Osilnica 1   - - 2018-09-26 04:43:00
Otlica 2   5 9 2018-09-26 04:33:00
Otlica (965 m) 7   4 7 2016-03-31 08:24:00
Park Škocj. jame 7   3 11 1039 2018-09-26 04:32:00
Pasja ravan 2   2 5 2018-09-26 04:43:00
Pavličevo sedlo -1   - - 2018-09-26 04:43:00
Piran-ocean. boja 14   12 16 2018-09-26 04:43:00
Planina pod Golico 0   - - 2018-09-26 04:43:00
Podčetrtek 2   - 2 1040 2018-09-26 04:33:00
Podnanos 6   2 4 2018-09-26 04:43:00
Postojna 4   2 6 1040 2018-09-26 04:43:00
Predel 2   - - 2018-09-26 04:43:00
Ptuj 2   1 1 2018-09-26 04:43:00
Ptuj - Terme -2   2 3 2017-01-19 14:35:00
Radegunda 4   - - 2018-09-26 04:42:00
Radenci 2   - - 1041 2018-09-26 04:34:00
Rateče -2   - - 2018-09-26 04:42:00
Rateče (864 m) -3   - 1 2018-09-26 04:33:00
Ratitovec -2   7 10 2018-09-26 04:43:00
Ravne na Koroškem 1   1 4 2018-09-26 04:34:00
Rogaška Slatina 5   1 2 2018-09-26 04:43:00
Rogla -3   4 8 2018-09-26 04:43:00
Rogla (1492 m) -11   4 7 2016-01-18 10:32:00
Rudno polje -1   2 4 2018-09-26 04:43:00
Rudno polje (1347 m) -2   1 3 2015-10-20 07:36:00
Sevno 4   - - 2018-09-26 04:43:00
Slavnik 2   17 20 2018-09-26 04:43:00
Slovenj Gradec 0   1 - 2018-09-26 04:42:00
Slovenske Konjice 1   - - 2018-09-26 04:43:00
Sviščaki 0   11 20 2018-09-26 04:43:00
Šebreljski vrh 2   - - 2018-09-26 04:43:00
Šmartno pri Slovenj Gradcu -1   1 1 2018-09-26 04:43:00
Tatre 4   - - 2018-09-26 04:43:00
Tolmin - Volče 5   1 2 2018-09-26 04:43:00
Topol 4   - - 2018-09-26 04:43:00
Trebnje 1   - - 2018-09-26 04:43:00
Trije Kralji na Pohorju -1   - - 2018-09-26 04:43:00
Trojane - Limovce 3   3 5 1041 2018-09-26 04:43:00
Uršlja gora -4   2 5 2018-09-26 04:43:00
Vedrijan 9   - - 2018-09-26 04:43:00
Velenje 2   - - 2018-09-26 04:43:00
Velike Lašče 0   - 1 2018-09-26 04:43:00
Vogel -1   2 4 2018-09-26 04:46:00
Vojsko 10   4 - 2018-09-25 14:42:00
Vrbanski plato -2   2 3 2016-12-07 11:23:00
Vrhnika 3   1 2 2018-09-26 04:43:00
Vršič -3   - - 2018-09-26 04:43:00
Zadlog 2   - - 2018-09-26 04:43:00
Zelenica -2   - - 2018-09-26 04:43:00
Zgornja Kapla 2   1 1 2018-09-26 04:43:00
Zgornja Radovna -2   - - 2018-09-26 04:43:00
Zgornja Sorica 1   - - 2018-09-26 04:43:00
Source: Slovenian Environmental Agency, meteo.si